Tracking 24120 objects as of 5-Dec-2021
HD Live streaming from Space Station
objects crossing your sky now

DELTA 1 DEB

Track DELTA 1 DEB now!
10-day predictions


NORAD ID: 24911
Int'l Code: 1981-070M
Perigee: 502.3 km
Apogee: 23,249.5 km
Inclination: 90.2 °
Period: 408.8 minutes
Semi major axis: 18246 km
RCS: 0.038 m2 (small)
Launch date: August 3, 1981
Source: United States (US)
Launch site: AIR FORCE WESTERN TEST RANGE (AFWTR)

Note: This is SATELLITE DEBRIS
aabbcc
Your satellite tracking list
Your tracking list is empty




NASA's NSSDC Master Catalog

Two Line Element Set (TLE):
1 24911U 81070M   21337.44902056 -.00000082  00000-0 -96370-4 0  9990
2 24911  90.2022  35.7353 6233179  42.9185 354.9326  3.52224258312371
Source of the keplerian elements: AFSPC